[[{"header":{"parameterUnit":"m.s-1","parameterCategory":1,"la1":30.2991,"la2":30.254,"lo1":-89.0895,"lo2":-89.0444,"dy":0.0017,"dx":0.0017,"nx":28,"ny":28,"refTime":"2025-12-22T09:00:00:Z","depth":0,"parameterNumber":2,"parameterNumberName":"U-component_of_WINDS"},"data":[0,0,0,0,0,0,0,0,0,0,0,0,0,0,0,0,0,0,0,0,0,0,0,0,0,0,0,0,0,0,0,0,0,0,0,0,0,0,0,0,0,0,0,0,0,0,0,0,0,0,0,0,0,0,0,0,0,0,-2.4485,-2.4485,0,-2.445,-2.4449,-2.4449,-2.436,-2.4358,-2.4356,-2.4354,-2.432,-2.4321,-2.4322,0,0,0,0,0,0,0,0,0,0,0,0,0,-2.4478,-2.4478,-2.4485,-2.4485,-2.4484,-2.445,-2.4449,-2.4449,-2.436,-2.4358,-2.4356,-2.4353,-2.432,-2.4321,-2.4322,0,0,0,0,0,0,0,0,0,0,0,0,0,-2.4466,-2.4479,-2.4485,-2.4436,-2.4431,-2.445,-2.4449,-2.4448,-2.4361,-2.4358,-2.4355,-2.4352,-2.4319,-2.4321,-2.4322,-2.4386,0,0,-2.4326,-2.4326,0,0,0,0,0,0,0,0,-2.4466,-2.4466,-2.4444,-2.4439,-2.4434,-2.4406,-2.4434,-2.4428,-2.4361,-2.4387,-2.4354,-2.4351,-2.4351,-2.4349,-2.4349,-2.4384,-2.4383,-2.4326,-2.4326,-2.4327,-2.4327,0,0,0,0,0,0,0,-2.4467,-2.4467,-2.4471,-2.4443,-2.4437,-2.4416,-2.4411,-2.4432,-2.4386,-2.4385,-2.4378,-2.4375,-2.4348,-2.4348,-2.4348,-2.4382,-2.4326,-2.4327,-2.4328,-2.4328,-2.4468,-2.4471,0,0,0,0,0,0,-2.4475,-2.4468,-2.4472,-2.447,-2.4443,-2.4418,-2.4413,-2.4418,-2.4385,-2.4377,-2.4378,-2.4371,-2.4347,-2.4346,-2.4346,-2.4418,-2.4327,-2.4328,-2.4329,-2.4465,-2.4468,-2.4472,0,0,0,0,0,0,-2.4475,-2.4476,-2.4474,-2.4467,-2.4465,-2.4421,-2.4428,-2.4419,-2.4419,-2.438,-2.4371,-2.4386,-2.4345,-2.4344,-2.4376,-2.4416,-2.4329,-2.433,-2.4461,-2.4466,-2.447,-2.4564,0,0,0,0,0,0,-2.4475,-2.4477,-2.4501,-2.4468,-2.4466,-2.4504,-2.443,-2.442,-2.4421,-2.4412,-2.4385,-2.4378,-2.4343,-2.4375,-2.4378,-2.4416,-2.4331,-2.4458,-2.4463,-2.4469,-2.4557,-2.4571,-2.4583,0,0,0,0,0,-2.4475,-2.4529,-2.4502,-2.4503,-2.4495,-2.4507,-2.4505,-2.4463,-2.4425,-2.4448,-2.4423,-2.4379,-2.4411,-2.4379,-2.4381,-2.4421,-2.4455,-2.4462,-2.4468,-2.4551,-2.4568,-2.4583,0,0,0,0,0,0,-2.4568,-2.4524,-2.4494,-2.4538,-2.4527,-2.4492,-2.452,-2.4482,-2.4482,-2.4474,-2.4422,-2.4416,-2.4456,-2.4441,-2.4406,-2.4481,-2.4426,-2.4433,-2.4489,-2.4504,-2.4517,-2.4519,-2.4332,0,0,0,0,0,-2.4593,-2.4606,-2.4568,-2.4611,-2.4606,-2.4565,-2.4568,-2.4536,-2.4523,-2.4518,-2.4495,-2.4484,-2.4491,-2.4497,-2.4502,-2.4555,-2.4547,-2.4583,-2.4596,-2.4607,-2.4614,-2.464,-2.4655,-2.4493,-2.4493,-2.4493,0,0,-2.4646,-2.4624,-2.4636,-2.4629,-2.4616,-2.4631,-2.4561,-2.458,-2.4591,-2.4521,-2.4549,-2.4532,-2.4516,-2.4559,-2.4577,-2.4548,-2.4657,-2.4615,-2.4624,-2.4625,-2.4649,-2.4664,-2.4678,-2.4498,-2.4497,-2.4496,0,0,-2.475,-2.4735,-2.4769,-2.4757,-2.4738,-2.471,-2.4718,-2.4689,-2.4674,-2.4702,-2.465,-2.4662,-2.4676,-2.4666,-2.4663,-2.4763,-2.4723,-2.4767,-2.4834,-2.486,-2.4873,-2.4884,-2.4919,-2.4932,-2.4774,-2.4774,-2.4774,0,-2.4818,-2.4838,-2.4791,-2.4813,-2.4811,-2.4748,-2.4782,-2.4773,-2.4758,-2.4758,-2.4727,-2.4742,-2.4727,-2.4766,-2.4791,-2.4791,-2.4798,-2.4769,-2.4875,-2.4885,-2.4895,-2.4928,-2.4941,-2.4779,-2.4779,-2.4778,-2.4778,0,-2.4923,-2.4937,-2.4967,-2.4952,-2.4954,-2.4983,-2.494,-2.4948,-2.4916,-2.4891,-2.492,-2.4899,-2.4898,-2.4905,-2.4875,-2.494,-2.4923,-2.4884,-2.4828,-2.4917,-2.4946,-2.4959,-2.4787,-2.4785,-2.4783,-2.4782,0,0,-2.5084,-2.5042,-2.5054,-2.5046,-2.5021,-2.5031,-2.5057,-2.5055,-2.5062,-2.5054,-2.5073,-2.5086,-2.505,-2.5046,-2.5014,-2.5038,-2.5117,-2.4995,-2.4994,-2.5018,-2.5187,-2.5216,-2.5232,-2.509,-2.5093,-2.5094,-2.5188,0,-2.5181,-2.5221,-2.5179,-2.5227,-2.524,-2.518,-2.5202,-2.5189,-2.5166,-2.5174,-2.5149,-2.5159,-2.511,-2.5108,-2.5128,-2.5103,-2.515,-2.5096,-2.5108,-2.5109,-2.5113,-2.5247,-2.5278,-2.5368,-2.52,-2.5202,-2.5203,0,-2.53,-2.5295,-2.5345,-2.5316,-2.5319,-2.534,-2.5334,-2.5343,-2.5327,-2.5309,-2.5305,-2.5266,-2.5288,-2.5234,-2.5265,-2.5229,-2.5231,-2.522,-2.5222,-2.5221,-2.5161,-2.525,-2.5396,-2.5409,-2.5221,-2.522,-2.5219,0,-2.5411,-2.5418,-2.5448,-2.5444,-2.5411,-2.5426,-2.5413,-2.5394,-2.5396,-2.5391,-2.5392,-2.5391,-2.539,-2.539,-2.5352,-2.5316,-2.5387,-2.533,-2.5372,-2.5374,-2.539,-2.5389,-2.5538,-2.5393,-2.5393,-2.5393,-2.5392,0,-2.5524,-2.5556,-2.5498,-2.5517,-2.5551,-2.5503,-2.5539,-2.552,-2.5503,-2.5517,-2.5466,-2.548,-2.5428,-2.5438,-2.5408,-2.5437,-2.5438,-2.5424,-2.5415,-2.5428,-2.543,-2.5428,-2.5421,-2.5396,-2.5395,-2.5395,-2.5394,0,-2.5654,-2.5616,-2.5645,-2.5611,-2.5603,-2.563,-2.5601,-2.5617,-2.5591,-2.5609,-2.5611,-2.557,-2.5578,-2.554,-2.5541,-2.5521,-2.5566,-2.5547,-2.5571,-2.5565,-2.561,-2.5606,-2.5762,-2.578,-2.5625,-2.5626,-2.5628,0,-2.5728,-2.5752,-2.572,-2.5725,-2.5714,-2.5724,-2.5724,-2.5678,-2.5681,-2.5664,-2.5682,-2.5686,-2.5686,-2.5701,-2.5672,-2.5673,-2.5653,-2.5708,-2.5653,-2.5665,-2.5653,-2.5652,-2.5654,-2.572,-2.5722,-2.5723,-2.5724,0,-2.5863,-2.5843,-2.5846,-2.5842,-2.5845,-2.584,-2.5831,-2.5839,-2.5788,-2.5795,-2.5801,-2.5802,-2.5802,-2.5806,-2.5801,-2.5788,-2.5748,-2.5742,-2.5752,-2.5765,-2.5777,-2.577,-2.5601,-2.5739,-2.5737,-2.5736,-2.5735,-2.5735,-2.5967,-2.5985,-2.5965,-2.597,-2.5958,-2.5951,-2.5964,-2.594,-2.5944,-2.594,-2.5913,-2.5925,-2.5908,-2.5896,-2.5887,-2.5896,-2.587,-2.5885,-2.5888,-2.5892,-2.59,-2.5776,-2.5895,-2.5895,-2.5894,-2.5894,-2.5894,0,-2.6099,-2.6083,-2.6088,-2.6077,-2.6081,-2.6042,-2.6031,-2.6037,-2.6048,-2.6035,-2.6036,-2.6043,-2.6047,-2.6018,-2.6017,-2.603,-2.6012,-2.6032,-2.603,-2.6027,-2.5923,-2.5915,-2.6046,-2.6046,-2.6046,-2.6046,-2.6046,-2.6046,-2.6168,-2.6195,-2.6173,-2.6194,-2.6178,-2.6189,-2.6185,-2.6179,-2.6168,-2.6179,-2.6181,-2.6162,-2.6142,-2.614,-2.6142,-2.6133,-2.6135,-2.6161,-2.6146,-2.605,-2.6035,-2.6021,-2.6012,-2.6162,-2.6162,-2.6249,-2.625,-2.6251]},{"header":{"parameterUnit":"m.s-1","parameterCategory":1,"la1":30.2991,"la2":30.254,"lo1":-89.0895,"lo2":-89.0444,"dy":0.0017,"dx":0.0017,"nx":28,"ny":28,"refTime":"2025-12-22T09:00:00:Z","depth":0,"parameterNumber":3,"parameterNumberName":"V-component_of_WINDS"},"data":[0,0,0,0,0,0,0,0,0,0,0,0,0,0,0,0,0,0,0,0,0,0,0,0,0,0,0,0,0,0,0,0,0,0,0,0,0,0,0,0,0,0,0,0,0,0,0,0,0,0,0,0,0,0,0,0,0,0,0.1855,0.1856,0,0.1911,0.1912,0.1912,0.1967,0.1968,0.1968,0.1969,0.2025,0.2026,0.2027,0,0,0,0,0,0,0,0,0,0,0,0,0,0.1797,0.1797,0.1855,0.1856,0.1857,0.1911,0.1912,0.1912,0.1967,0.1968,0.1969,0.1969,0.2025,0.2026,0.2027,0,0,0,0,0,0,0,0,0,0,0,0,0,0.1834,0.1798,0.1855,0.189,0.1894,0.1911,0.1912,0.1913,0.1967,0.1968,0.1969,0.197,0.2025,0.2026,0.2027,0.2013,0,0,0.2031,0.2031,0,0,0,0,0,0,0,0,0.1832,0.1836,0.1885,0.1888,0.1892,0.1933,0.1912,0.1946,0.1966,0.1939,0.1969,0.197,0.1994,0.1997,0.2005,0.2016,0.2018,0.2031,0.2032,0.2032,0.2032,0,0,0,0,0,0,0,0.1829,0.1834,0.1877,0.1885,0.189,0.1904,0.191,0.1918,0.196,0.1942,0.1946,0.1952,0.1996,0.2004,0.2007,0.2019,0.2031,0.2032,0.2033,0.2033,0.2022,0.2021,0,0,0,0,0,0,0.1821,0.1831,0.1876,0.1879,0.1864,0.1904,0.1911,0.1919,0.196,0.1967,0.1951,0.1954,0.2002,0.2006,0.2009,0.1997,0.2032,0.2033,0.2034,0.2023,0.2022,0.2021,0,0,0,0,0,0,0.182,0.1825,0.1873,0.1856,0.1864,0.1904,0.1912,0.1919,0.1928,0.1966,0.1974,0.1951,0.2003,0.2008,0.2012,0.2,0.2034,0.2035,0.2024,0.2023,0.2021,0.1971,0,0,0,0,0,0,0.1818,0.1824,0.1819,0.1856,0.1864,0.1875,0.1911,0.192,0.193,0.1935,0.1969,0.1976,0.2004,0.201,0.2013,0.2002,0.2036,0.2026,0.2023,0.2022,0.1974,0.1968,0.1963,0,0,0,0,0,0.1816,0.1802,0.1818,0.1823,0.1859,0.1874,0.1879,0.1911,0.1929,0.1924,0.1949,0.1975,0.2,0.201,0.2014,0.2003,0.2026,0.2024,0.2022,0.1976,0.1969,0.1963,0,0,0,0,0,0,0.1761,0.1807,0.1826,0.1824,0.1845,0.1883,0.1878,0.1902,0.1918,0.1922,0.1962,0.1969,0.1969,0.1986,0.1996,0.1992,0.2017,0.2015,0.1981,0.1974,0.1969,0.1965,0.2037,0,0,0,0,0,0.1749,0.1758,0.1797,0.1792,0.1801,0.1838,0.1846,0.1869,0.1892,0.1901,0.1926,0.1948,0.1961,0.1968,0.1982,0.1977,0.1985,0.1971,0.1965,0.1961,0.1959,0.1958,0.1953,0.2013,0.2013,0.2013,0,0,0.1724,0.175,0.1753,0.1781,0.18,0.1809,0.1845,0.1852,0.1858,0.1902,0.1908,0.1928,0.1954,0.1954,0.1955,0.1968,0.1944,0.1958,0.1953,0.1954,0.1955,0.195,0.1945,0.2011,0.2012,0.2012,0,0,0.1683,0.1703,0.1701,0.172,0.1748,0.1773,0.1772,0.1808,0.1823,0.1829,0.1863,0.1871,0.1892,0.1911,0.1922,0.1889,0.1914,0.1893,0.1863,0.1863,0.1858,0.1854,0.1843,0.1839,0.1891,0.1891,0.1891,0,0.1648,0.1662,0.1697,0.1702,0.1714,0.1755,0.1754,0.177,0.1801,0.1809,0.1823,0.1852,0.1872,0.1878,0.187,0.1877,0.1879,0.1889,0.1856,0.1852,0.1849,0.1839,0.1835,0.1888,0.1888,0.1888,0.1889,0,0.1618,0.1627,0.1622,0.1653,0.1664,0.1666,0.1702,0.1709,0.1731,0.1755,0.1762,0.1788,0.1809,0.1812,0.1833,0.182,0.1828,0.1848,0.1874,0.184,0.1831,0.1828,0.1884,0.1885,0.1886,0.1886,0,0,0.1544,0.1594,0.1592,0.1607,0.1642,0.165,0.1654,0.1675,0.1681,0.1701,0.1706,0.1724,0.1744,0.1757,0.1781,0.178,0.1754,0.1801,0.1803,0.1792,0.1742,0.1727,0.1722,0.177,0.177,0.1769,0.1741,0,0.1509,0.1519,0.1552,0.1552,0.1562,0.1601,0.1605,0.1627,0.1649,0.166,0.1685,0.1697,0.1722,0.173,0.1731,0.1757,0.1745,0.1759,0.1776,0.1776,0.1769,0.1718,0.1701,0.1673,0.1737,0.1737,0.1736,0,0.147,0.1489,0.149,0.1526,0.1532,0.1534,0.1557,0.1567,0.1593,0.1609,0.1625,0.1652,0.166,0.1683,0.1694,0.1703,0.1712,0.1726,0.1726,0.1729,0.1755,0.172,0.1664,0.166,0.1731,0.1732,0.1732,0,0.1417,0.1443,0.1447,0.1459,0.15,0.1502,0.1519,0.1546,0.1557,0.1577,0.1584,0.1604,0.1615,0.163,0.1662,0.1676,0.167,0.1696,0.1684,0.1683,0.1681,0.1681,0.1627,0.1685,0.1685,0.1686,0.1686,0,0.1375,0.1375,0.1424,0.1427,0.1428,0.1466,0.1466,0.1487,0.1511,0.1519,0.1554,0.1561,0.1603,0.1614,0.1639,0.1645,0.165,0.1663,0.167,0.1661,0.1659,0.1667,0.1671,0.1684,0.1685,0.1685,0.1685,0,0.1316,0.1349,0.1357,0.1396,0.1406,0.1405,0.1439,0.1444,0.1468,0.1478,0.1483,0.1521,0.1537,0.157,0.1595,0.1612,0.1612,0.1624,0.1603,0.1608,0.1594,0.1596,0.1544,0.154,0.16,0.16,0.1599,0,0.1288,0.1289,0.1328,0.1337,0.1353,0.1365,0.1377,0.1414,0.1425,0.1455,0.1456,0.1475,0.1492,0.1515,0.1546,0.1565,0.1578,0.1559,0.1581,0.1572,0.1579,0.1579,0.158,0.1554,0.1553,0.1552,0.1552,0,0.1234,0.1251,0.1266,0.1288,0.1301,0.1319,0.134,0.1344,0.1387,0.1397,0.1414,0.1427,0.1453,0.1471,0.1496,0.1514,0.154,0.1544,0.1543,0.1533,0.1522,0.1529,0.1591,0.1545,0.1546,0.1546,0.1547,0.1547,0.1191,0.1194,0.1222,0.1239,0.1258,0.1277,0.1284,0.1309,0.1324,0.1348,0.1369,0.1385,0.1412,0.1447,0.1464,0.1477,0.149,0.1487,0.1487,0.1486,0.1482,0.1519,0.1481,0.1482,0.1482,0.1482,0.1482,0,0.114,0.116,0.1175,0.1203,0.1216,0.124,0.1264,0.1274,0.1287,0.131,0.1327,0.1347,0.1365,0.1397,0.1418,0.1422,0.1435,0.1427,0.1427,0.1431,0.1469,0.1469,0.1416,0.1416,0.1416,0.1416,0.1416,0.1416,0.1115,0.1122,0.1142,0.1159,0.118,0.1196,0.1207,0.1225,0.1244,0.1265,0.1281,0.1302,0.1329,0.1353,0.1371,0.138,0.1386,0.1374,0.1387,0.1422,0.1428,0.1434,0.1434,0.1375,0.1375,0.1349,0.1348,0.1348]}]]